Regional Weather Roundup
Issued by NWS Green Bay, WI

Home | Current Version | Previous Version | Graphics & Text | Print | Product List | Glossary Off
Versions: 1 2 3 4 5 6 7 8 9 10 11 12 13 14 15 16 17 18 19 20 21 22 23 24 25 26 27 28 29 30 31 32 33 34 35 36 37 38 39 40 41 42 43 44 45 46 47 48 49 50

000
ASUS43 KGRB 301800
RWRGRB

NORTH-CENTRAL AND NORTHEAST WISCONSIN REGIONAL WEATHER ROUNDUP
NATIONAL WEATHER SERVICE GREEN BAY WI
100 PM CDT THU JUL 30 2015

WIZ005-009-010>012-018-019-301900-
NORTH CENTRAL WISCONSIN

CITY           SKY/WX    TMP DP  RH WIND       PRES   REMARKS
IRONWOOD       SUNNY     75  55  50 W14       29.92F
MANITOWISH WTR NOT AVBL
ARBOR VITAE    NOT AVBL
EAGLE RIVER    NOT AVBL
LAND O LAKES   NOT AVBL
RHINELANDER    MOSUNNY   79  52  38 NW8       29.98S
PHILLIPS       NOT AVBL
ANTIGO         NOT AVBL
TOMAHAWK       NOT AVBL
MERRILL        NOT AVBL
$$

WIZ013-073-301900-
NORTHEAST WISCONSIN

CITY           SKY/WX    TMP DP  RH WIND       PRES   REMARKS
IRON MOUNTAIN  MOSUNNY   83  50  31 NW13G29   29.90
MARINETTE      SUNNY     82  54  36 NW10G18   29.89F
$$

WIZ017-030-035>037-045-301900-
CENTRAL WISCONSIN

CITY           SKY/WX    TMP DP  RH WIND       PRES   REMARKS
MEDFORD        NOT AVBL
WAUSAU         PTSUNNY   83  55  38 W21G30    29.97F
MOSINEE        NOT AVBL
MARSHFIELD     MOSUNNY   83  55  38 W12G22    30.01F
WISC RAPIDS    MOSUNNY   83  53  35 NW14G28   30.02F
STEVENS POINT  NOT AVBL
WAUPACA        NOT AVBL
SHAWANO        NOT AVBL
CLINTONVILLE   NOT AVBL
$$

WIZ038-039-048-051-301900-
FOX VALLEY

CITY           SKY/WX    TMP DP  RH WIND       PRES   REMARKS
NWS GREEN BAY  MOSUNNY   82  60  47 W15G24    29.95F
APPLETON       PTSUNNY   82  52  34 W17G29    29.99F
OSHKOSH        MOSUNNY   84  56  38 W15G26    29.98F
FOND DU LAC    MOSUNNY   85  58  39 W15G23    30.00S
$$

WIZ022-050-052-301900-
EAST CENTRAL WISCONSIN

CITY           SKY/WX    TMP DP  RH WIND       PRES   REMARKS
STURGEON BAY   SUNNY     81  55  41 W16G23    29.94S
MANITOWOC      NOT AVBL
SHEBOYGAN      MOSUNNY   83  58  42 W20G28    29.99S
$$

LMZ563-521-522-541>543-301900-
LAKESHORE

STATION/POSITION TIME  TEMP    WIND        PRES    VSBY  WAVE
                       AIR SEA DIR/SP/G                  HT/PER
                 (UTC) (F)     (DEG/KT/KT) (MB)    (MI)  (FT/S)
SHEBOYGAN LKSHOR 1700   80     300/ 16/ 21 1015.2F
KEWAUNEE LKSHORE 1700   80     270/ 13/ 19 1013.2F
ALGOMA MARINA    1712          320/ 12/ 22   N/A
NORTHPORT PIER   1700   78     300/  8/ 19 1011.9S
N MID LAKE BUOY  1650   71 68  240/ 14/ 16 1011.2R         3/ 5
SISTER BAY LKSHO 1714   79     300/ 12/ 13   N/A
CHAMBERS ISLAND  1700   78     240/  8/ 13 1012.2S
MENOMINEE LKSHOR 1700   81     270/ 11/ 20 1013.2R
$$



USA.gov is the U.S. government's official web portal to all federal, state and local government web resources and services.